User: anonymous
Location: Whitehorse
(60.7170°N, 135.0500°W)
Time: 20:44:59
(UTC-07:00)
Language:

Cosmos 2219 Rocket - Orbit

View from above orbital plane
View from above orbital plane
View from above satellite
View from above satellite

Ground track
Ground track

The orbit data is extracted from the following two-line orbital elements,

1 22220U 92076B   14293.11189433 -.00000008  00000-0  20050-4 0  4378
2 22220 070.9996 303.1801 0014910 307.3521 108.8485 14.16324916133279
Epoch (UTC): 20 October 2014 02:41:07
Eccentricity: 0.0014910
inclination: 70.9996°
perigee height: 827 km
apogee height: 848 km
right ascension of ascending node: 303.1801°
argument of perigee: 307.3521°
revolutions per day: 14.16324916
mean anomaly at epoch: 108.8485°
orbit number at epoch: 13327

The dashed part of the orbit path shows where the satellite is in the earth's shadow,  

DLR